OTB (44341 NORAD) Tracking and Keplerian Element Data

This shows tracking and keplerian element data for the satellite.

Feedback or suggestion? Click here.




ElementValue
Catalog44341
NameOTB
Epoch Orbit370
Epoch Day201.80870173
Epoch Year2019
RAAN44.2344
Inclination24.0015
Eccentricity0.0012041
Argument of Perigee114.6486
Mean Anonmoly245.5204
Mean Motion14.52839027
Decay Rate2.35E-06
L11 44341U 19036C 19201.80870173 .00000235 00000-0 58005-5 0 9995
L22 44341 24.0015 44.2344 0012041 114.6486 245.5204 14.52839027 3702

Live tracking and technical data element details for OTB (NORAD 44341). OTB can be tracked NOW for your location showing map with azimuth and elevation plus other details from your city location.

Track the satellite on the map from your city or location and see movement details for azimuth, elevation, latitude, longitude, range, height, and movement on the map or in text.







IsCatalogInMostPopularTable: catalog: 44341, numindb: 12
Update: records affected: 1



GetName: 44341 OTB

Hit Count: updated at: Sun, 21 Jul 2019 21:47:26 GMT